CAPE
0 0 0 0 0 0 0 0 0 0 2 1 1 6 4 0 0 0 0 0 0 0 4 7 5 2 0 0 18 0 0 24 33 87 108 155 110 104 35 114 118 79 78
0 0 0 0 0 0 0 0 0 0 1 1 0 0 7 10 0 0 0 0 0 0 0 1 4 1 3 1 41 0 0 46 42 99 33 65 116 84 165 161 141 124 123
0 0 0 0 0 0 0 0 0 0 0 0 1 0 0 4 7 0 0 0 0 0 0 0 0 0 0 19 41 0 2 20 58 73 86 34 137 142 150 103 124 139 110
0 0 0 0 0 0 0 0 0 6 4 0 0 0 4 6 10 0 0 0 0 0 0 0 0 0 0 72 53 54 27 18 0 6 33 32 36 208 269 134 66 94 169
0 0 0 0 0 0 0 0 1 8 1 0 0 1 1 1 7 1 0 0 0 0 0 0 0 0 0 68 84 114 48 0 0 0 0 0 37 68 127 263 143 99 73
0 0 0 0 0 0 0 1 10 0 0 0 0 1 0 0 0 0 0 0 0 0 0 0 0 0 0 56 96 73 77 5 0 0 0 0 0 0 64 39 79 147 98
0 0 0 0 2 0 0 1 1 0 0 0 1 2 0 0 0 0 0 0 0 0 0 0 0 0 0 23 55 33 99 0 0 0 0 0 0 1 0 0 3 70 178
0 0 0 5 2 1 0 0 0 0 1 0 3 2 1 0 0 0 1 0 0 0 0 0 0 0 0 0 17 43 1 0 13 8 0 5 1 5 0 4 0 0 33
0 0 0 7 8 4 0 1 0 1 1 2 4 2 0 1 1 0 0 0 0 0 0 0 0 0 1 4 24 1 0 0 0 0 0 0 0 7 26 2 16 0 0
0 0 0 0 0 1 3 2 6 3 1 2 1 4 3 2 1 0 0 0 0 0 0 0 0 0 0 12 24 14 1 0 0 0 0 0 0 0 0 5 6 32 0
0 0 0 0 0 0 0 1 5 10 4 1 3 3 2 4 1 2 0 0 0 0 0 0 0 0 0 0 0 6 3 0 0 0 0 0 0 0 0 0 0 22 0
0 0 0 0 0 0 0 0 1 2 0 4 2 10 3 1 1 0 0 1 2 0 0 0 0 0 0 0 0 0 6 5 0 0 0 0 0 0 0 0 0 5 0
0 0 0 0 0 0 0 0 0 0 0 0 0 0 11 7 5 3 1 1 0 1 0 0 0 0 0 0 1 0 5 1 22 0 0 0 0 0 0 0 0 0 0
0 0 0 0 0 0 0 0 0 0 2 0 0 0 0 1 8 7 3 1 0 1 0 0 0 0 0 0 0 0 11 58 31 13 7 2 0 0 0 0 0 10 0
0 0 0 0 0 0 0 0 0 0 3 4 0 0 0 0 2 3 9 0 1 0 0 0 0 0 0 0 0 0 0 15 37 19 0 5 0 0 1 42 56 82 59
0 0 0 0 0 0 0 0 0 0 1 0 0 0 5 0 0 9 0 5 1 1 0 0 0 0 0 0 0 0 0 0 0 11 8 0 0 0 10 32 31 49 32
0 0 0 0 0 0 0 0 0 0 0 0 0 0 0 0 0 0 0 2 14 2 1 0 0 0 0 0 0 0 0 0 0 0 0 0 2 0 2 10 24 8 1
0 0 0 0 0 0 0 0 0 0 0 0 0 0 0 0 0 2 2 9 20 7 6 0 0 0 0 0 0 0 0 0 0 0 0 0 0 4 0 4 0 0 0
0 0 0 0 0 0 0 0 0 0 0 0 0 0 0 0 0 0 2 0 8 4 4 4 4 0 0 0 0 0 0 0 0 0 0 0 0 0 0 0 0 0 0
0 0 0 0 0 0 0 0 0 0 0 0 0 0 0 2 0 3 1 0 0 2 5 4 2 0 0 0 0 0 0 0 0 0 0 0 0 0 0 1 14 6 0
0 0 0 0 0 0 0 0 0 0 0 0 0 0 0 15 16 10 0 0 2 0 7 4 4 0 0 0 0 0 0 0 0 0 0 0 0 0 0 0 1 28 6
0 0 0 0 0 0 6 20 0 0 0 0 0 0 0 0 3 0 3 0 3 5 0 0 1 2 0 0 0 0 0 0 0 0 0 0 0 0 0 0 0 0 18
0 0 0 0 0 0 2 15 0 0 0 0 0 0 0 0 0 0 0 0 0 0 17 0 0 0 0 0 0 0 0 0 0 0 0 0 0 0 0 0 0 0 0
0 0 0 0 0 0 0 14 0 0 0 0 0 0 0 0 0 0 0 0 0 0 0 0 2 0 0 0 4 0 0 0 0 0 0 1 0 0 0 0 0 0 0
0 0 0 0 0 0 0 3 0 0 0 0 0 0 0 0 5 6 0 0 0 0 0 0 0 1 2 25 5 0 0 0 0 0 2 1 0 0 0 0 0 0 0
0 0 0 0 0 0 0 1 2 0 0 0 0 0 0 1 6 5 0 0 0 0 0 0 0 0 0 0 0 0 0 0 0 0 1 1 1 0 0 0 0 0 0
CIN
0 0 0 0 0 0 0 0 0 0 -3 -0 -5 -8 -10 -1 0 0 0 0 0 0 -0 -1 -0 -0 -1 -0 -3 0 0 -50 -13 -7 -1 -3 -3 -4 -17 -7 -5 -9 -16
0 0 0 0 0 0 0 0 0 0 -1 -3 0 -0 -13 -9 -6 0 0 0 0 0 0 -0 -0 -1 -1 -0 -0 0 0 -29 -36 -11 -15 -4 -3 -9 -3 -4 -4 -3 -3
0 0 0 0 0 0 0 0 0 0 0 0 0 0 0 -24 -13 0 0 0 0 0 0 0 0 0 0 -1 -0 0 -41 -43 -32 -6 -1 -10 -17 -4 -6 -11 -6 -3 -2
0 0 0 0 0 0 0 0 0 -8 -5 0 0 0 -33 -27 -14 0 0 0 0 0 0 0 0 0 0 -3 -0 -1 -1 -60 0 -4 -41 -22 -8 -0 -2 -5 -13 -8 -1
0 0 0 0 0 0 0 0 -5 -4 -6 0 0 -0 -18 -32 -25 -11 0 0 0 0 0 0 0 0 0 -5 -1 -5 -0 0 0 0 0 0 -7 -5 -7 0 -3 -5 -7
0 0 0 0 0 0 -5 -9 -0 -0 -7 0 0 -0 0 -35 0 0 0 0 0 0 0 0 0 0 0 -16 -9 -2 -1 0 0 0 0 0 0 0 -4 -3 -2 -0 -2
0 0 0 0 -4 0 -4 -4 -2 -2 0 0 0 -1 0 0 0 0 0 0 0 0 0 0 0 0 0 -43 -17 -14 -2 0 0 0 0 0 0 -2 0 0 -2 -0 -0
0 0 0 -3 -8 -5 -8 0 0 0 0 0 0 -1 -0 0 0 0 -1 0 0 0 0 0 0 0 0 0 -32 -28 -9 -3 -2 -2 0 -2 -1 -9 0 -2 0 0 -1
0 0 -3 -8 -6 -8 -5 0 0 0 -1 -1 -0 -0 0 -0 -0 -0 0 0 0 0 0 0 0 -27 -65 -37 -32 -40 0 0 0 0 0 0 -0 -1 -1 -1 -0 0 0
0 0 0 0 0 -1 -6 -1 -4 -4 -1 -0 -1 -0 -0 0 -3 0 0 0 0 0 0 0 0 0 -18 -103 -65 -44 -11 0 0 0 0 0 0 0 0 -1 -1 -1 0
0 0 0 0 0 0 0 -13 -6 -1 0 0 -0 0 0 -0 0 0 0 0 0 0 0 0 0 0 0 0 -15 -60 -9 0 0 0 0 0 0 0 0 0 0 -10 0
0 0 0 0 0 0 0 0 -11 -10 0 -1 -1 -0 0 0 0 0 0 0 0 0 0 0 0 0 0 0 0 0 -52 -17 0 0 0 0 0 0 0 0 0 -0 0
0 0 0 0 0 0 0 0 0 -9 0 0 0 -2 -0 -0 -3 -0 0 -0 0 0 0 0 0 0 0 0 -73 -22 -55 -23 -12 0 0 0 0 0 0 0 0 0 0
0 0 0 0 0 0 0 0 0 0 -12 0 0 0 -0 -4 -1 -0 0 0 0 0 0 0 0 0 0 0 0 0 -68 -30 -14 -13 -13 -14 0 0 0 0 0 -0 -1
0 0 0 0 0 0 0 0 0 -1 -11 -17 0 0 -0 0 -1 -10 -2 0 0 0 0 0 0 0 0 0 0 0 0 -52 -37 -23 -1 -11 0 0 -1 -2 -1 -0 -6
0 0 0 0 0 0 0 0 0 0 -6 0 0 0 -2 -3 0 -3 0 -6 -1 -2 0 -0 0 0 0 0 0 0 0 0 0 -45 -38 0 0 0 -10 -5 -9 -3 -1
0 0 0 0 0 0 0 0 0 0 0 0 0 -2 -6 -1 0 -0 -3 -25 -15 -13 -1 0 0 0 0 0 0 0 0 0 0 0 0 0 -25 0 -4 -7 -10 -13 -4
0 0 0 0 0 0 0 0 0 0 0 0 0 -0 0 0 0 -2 -5 -3 -5 -12 -7 -3 0 0 0 0 0 0 0 0 0 0 0 0 0 -22 0 -4 0 0 0
0 0 0 0 0 0 0 0 0 0 0 0 0 0 0 0 0 -0 -2 -1 -6 -10 -15 -7 -7 0 0 0 0 0 0 0 0 0 0 0 0 0 0 0 0 0 0
0 0 0 0 0 0 0 0 0 0 0 0 0 0 0 -5 0 -3 -5 -0 -0 -7 -15 -5 -7 0 0 0 0 0 0 0 0 0 0 0 0 0 0 -1 -6 -14 0
0 0 0 0 0 0 0 0 0 0 0 0 0 0 0 -1 -0 -1 -1 -0 -1 -6 -14 -13 -12 -5 -6 0 0 0 0 0 0 0 0 0 0 0 0 0 -3 -6 -10
0 0 0 0 0 0 -0 -0 -4 0 0 0 0 0 0 0 -0 0 -0 -0 -5 -0 0 0 0 0 0 0 -0 0 0 0 0 0 0 0 0 0 0 0 0 0 -11
0 0 0 0 0 0 -4 -0 -0 0 0 0 0 0 0 0 0 0 0 0 0 0 -0 -1 -2 0 0 -2 -3 0 0 0 -0 0 0 0 0 0 0 0 0 0 0
0 0 0 0 0 0 -1 -0 -0 0 0 0 0 0 0 0 -6 0 0 0 0 0 0 0 -4 0 0 -12 -11 -4 0 0 0 0 -1 0 0 0 0 0 0 0 0
0 0 0 0 0 0 0 -0 -0 0 0 0 0 0 0 0 -1 -5 0 0 0 0 0 0 0 0 0 -0 -5 0 0 0 0 -1 -3 0 0 0 0 0 0 0 0
0 0 0 0 0 0 0 -0 -0 0 0 0 0 0 0 -1 -0 -0 0 0 -3 0 0 0 0 0 0 0 0 0 0 0 0 0 -1 -3 -2 -1 0 0 0 0 0
Wind_Speed
39 40 39 39 39 39 39 41 40 42 41 41 42 43 42 43 42 41 41 42 42 41 42 43 44 44 47 47 46 41 41 36 34 35 31 30 29 27 26 24 22 21 20
37 39 39 37 37 38 38 40 41 42 41 42 42 42 43 43 43 42 41 41 43 41 41 41 43 44 45 47 45 41 40 37 34 33 35 32 29 28 29 27 26 23 22
34 36 36 36 37 36 37 38 39 39 41 41 41 41 43 43 42 43 42 41 41 42 42 40 41 43 43 46 42 42 40 38 35 37 36 33 33 34 30 27 26 25 24
34 34 35 35 33 35 35 35 38 39 39 40 41 40 41 40 41 42 42 42 42 41 41 40 39 39 40 39 38 37 36 32 30 30 29 35 35 32 28 28 27 25 25
35 34 34 31 31 31 30 29 30 35 39 39 38 39 39 40 41 40 41 43 42 41 39 39 38 37 38 36 39 36 31 32 32 27 25 25 27 33 32 31 30 28 25
34 33 30 29 26 25 27 25 24 28 31 35 37 39 37 38 35 37 38 40 40 40 37 37 36 35 35 35 35 33 32 30 33 35 30 28 25 27 27 32 32 30 30
33 32 27 30 28 25 25 24 25 24 26 31 35 35 34 33 28 29 33 35 36 36 35 34 34 33 32 31 30 32 31 28 29 29 31 34 31 28 24 24 26 28 31
31 28 27 30 32 29 25 28 24 22 21 25 30 35 31 29 24 29 29 29 29 32 31 30 30 31 30 27 26 23 22 20 23 24 25 27 32 35 30 27 22 26 27
30 27 26 29 30 27 25 23 23 20 18 19 21 25 27 27 31 24 26 24 22 23 24 25 25 27 26 24 25 24 24 25 23 25 26 28 28 25 31 30 28 28 28
29 28 26 25 30 30 29 26 22 21 17 13 17 25 21 24 25 24 24 22 19 19 20 21 21 22 23 23 21 23 25 28 29 28 30 31 32 33 28 27 29 32 30
29 27 26 27 27 28 27 29 28 22 19 20 17 14 17 23 22 22 22 20 17 15 16 17 17 17 20 22 22 22 24 26 28 28 29 31 33 35 36 34 32 34 33
28 27 26 24 26 27 27 23 23 23 24 23 19 16 15 15 23 21 20 20 18 17 15 14 15 16 17 19 21 21 23 25 27 26 27 29 31 34 36 37 37 35 35
27 27 26 24 24 24 24 25 23 20 22 20 21 17 17 12 11 18 20 19 17 17 17 14 14 14 15 16 17 19 23 25 25 25 25 26 28 30 34 38 39 38 34
24 25 26 25 22 22 22 20 22 23 17 18 16 13 18 22 22 20 19 18 18 16 15 16 15 14 16 17 18 16 19 20 21 22 25 26 26 28 30 32 34 33 32
24 25 26 25 24 22 21 20 22 20 18 20 16 11 9 7 9 21 19 17 16 17 16 16 17 17 17 18 18 17 18 18 18 22 24 25 26 27 27 25 25 23 24
24 25 25 25 25 24 21 20 18 19 20 16 16 19 14 9 8 9 15 16 16 17 19 18 17 19 19 19 19 19 18 19 19 20 22 24 25 26 26 24 22 20 21
22 24 24 24 24 24 23 21 20 19 18 17 17 15 16 18 9 9 15 15 16 17 19 19 19 18 18 20 21 22 22 22 22 22 23 25 26 26 26 23 22 21 22
20 20 21 23 23 22 23 23 23 21 21 17 16 20 19 14 19 16 12 15 18 17 17 18 18 20 20 22 23 23 23 23 26 25 24 25 26 27 26 24 23 22 22
19 19 20 21 22 21 20 22 22 21 22 20 18 16 16 15 6 22 20 19 16 17 18 19 19 18 19 20 22 22 23 23 24 25 26 27 27 27 27 26 24 24 24
17 17 18 19 19 20 19 20 22 22 20 19 19 19 16 13 10 12 13 22 21 19 17 18 18 19 19 19 19 21 23 23 25 26 27 28 29 29 28 29 27 26 26
17 16 18 19 18 18 21 20 23 23 22 22 18 17 17 15 14 8 14 8 4 22 19 19 19 20 20 20 21 21 23 26 27 26 28 28 29 30 30 29 30 30 29
18 18 18 20 19 18 18 21 23 21 21 22 21 17 15 16 13 15 12 6 5 23 19 21 22 22 22 22 22 22 24 25 26 22 27 30 29 32 32 31 31 31 31
19 19 21 21 21 20 18 20 21 21 21 21 21 21 18 15 15 17 15 17 11 21 22 20 17 22 24 24 24 26 27 29 29 29 29 29 26 32 32 32 32 31 32
19 20 21 21 22 20 20 19 20 20 19 19 20 20 20 18 14 19 20 18 16 15 6 6 6 6 8 20 21 23 25 27 28 28 24 25 21 28 30 31 33 34 35
19 20 21 22 22 21 20 19 21 21 20 20 19 21 22 21 18 20 17 16 16 13 10 9 6 6 12 8 13 21 25 26 27 26 24 25 24 26 27 33 35 34 35
17 19 20 21 21 21 20 20 21 22 23 23 20 22 24 22 23 20 21 16 13 14 11 8 9 9 12 18 20 12 12 20 23 25 21 24 26 27 28 24 26 27 30
Wind_Direction
348 346 344 342 338 335 330 324 320 315 310 306 302 298 295 291 289 287 284 281 277 275 273 269 264 262 257 256 255 254 255 259 261 254 252 253 251 250 249 249 253 255 251
352 350 348 346 342 338 333 328 321 316 312 307 303 298 295 292 288 285 284 281 276 273 273 271 265 262 259 255 251 252 254 254 257 256 252 253 254 250 249 250 251 252 250
355 352 350 346 343 342 338 333 327 322 316 312 305 301 297 291 288 283 280 279 276 272 270 272 268 263 258 258 248 249 252 252 255 255 254 254 254 250 250 249 250 251 251
357 355 353 351 351 347 344 339 334 327 321 314 309 305 300 293 289 283 279 277 275 271 269 268 269 265 257 252 249 249 250 247 249 257 256 254 254 254 253 249 250 251 250
0 359 357 358 358 358 356 353 348 339 325 318 314 310 303 297 289 284 280 276 272 267 266 267 266 263 257 251 250 247 249 244 244 252 254 260 259 253 252 251 251 250 252
6 5 7 6 8 8 6 5 360 352 342 329 320 313 309 300 295 286 283 278 271 264 262 265 264 262 256 252 250 250 247 247 247 249 252 255 264 257 256 254 253 252 252
11 12 16 11 14 15 13 11 10 6 360 346 328 324 315 305 301 299 291 282 269 260 259 263 261 259 256 254 250 254 246 250 248 251 251 250 257 258 257 258 255 253 255
19 21 19 11 14 19 22 18 19 19 10 2 342 325 321 314 311 308 298 289 271 259 258 262 261 257 254 253 248 247 243 256 248 251 255 254 254 256 258 259 260 255 256
25 26 24 16 12 19 22 24 23 23 22 20 14 348 329 316 310 313 300 292 281 263 260 261 263 256 253 251 250 246 245 253 259 256 258 258 258 264 260 260 262 258 258
30 31 28 26 14 12 18 24 28 30 30 27 34 13 3 335 316 306 308 295 288 272 264 261 264 257 253 250 251 250 251 254 259 262 262 261 260 259 267 267 264 264 261
33 34 33 31 27 16 18 19 25 34 35 44 49 51 40 357 330 308 304 301 288 287 275 264 265 262 256 253 254 257 257 257 261 265 266 264 264 265 264 267 266 267 264
36 36 35 35 31 29 16 22 28 35 37 42 47 52 59 61 343 314 300 302 282 275 283 277 270 268 264 260 258 259 262 264 263 264 266 267 268 268 266 265 264 269 268
39 38 37 39 38 35 35 23 25 33 35 43 42 50 56 71 88 352 307 304 292 275 273 286 281 275 271 269 270 267 268 265 264 264 267 271 274 275 272 268 266 266 269
41 40 40 42 43 43 43 47 42 34 40 40 47 59 48 31 4 22 333 301 285 281 276 278 284 286 277 275 275 276 278 272 266 269 269 273 279 281 278 276 268 265 265
44 43 42 43 45 48 49 50 49 50 50 43 47 57 70 105 110 9 333 314 291 277 278 282 278 288 283 278 281 281 280 278 276 274 274 275 278 281 281 282 275 267 264
45 44 43 45 46 48 50 51 53 52 51 55 56 50 61 91 124 189 287 296 294 286 277 288 287 288 284 283 283 282 282 284 285 283 279 279 280 280 281 278 279 273 266
46 45 45 46 49 49 48 50 53 54 54 55 58 62 58 307 205 132 306 264 280 289 288 287 288 292 292 286 285 285 283 283 284 285 284 285 284 282 281 281 277 274 271
48 47 47 46 48 48 49 50 52 54 54 57 59 58 59 76 316 285 220 247 280 287 294 298 295 292 291 291 288 287 287 286 282 282 287 288 287 285 282 280 278 275 275
48 48 48 48 47 48 49 50 52 54 54 57 60 64 62 69 103 337 323 312 10 328 304 298 302 306 302 301 296 293 290 289 288 286 284 285 287 287 285 280 278 275 272
51 50 48 49 48 46 50 51 50 52 55 56 61 61 62 71 76 86 17 336 332 335 330 316 314 311 310 307 309 300 295 296 290 292 289 285 283 285 285 284 276 274 272
55 55 51 50 50 50 48 55 50 51 53 54 61 62 63 68 72 86 80 106 283 335 337 326 321 315 312 311 309 307 300 298 297 297 292 291 287 282 282 284 281 275 273
55 54 53 50 49 53 48 53 50 50 51 53 55 59 61 65 68 70 75 101 157 8 13 334 321 315 313 311 311 311 308 307 303 310 301 292 293 286 283 283 281 280 274
55 53 52 50 50 53 51 52 52 52 52 52 52 52 55 61 61 68 66 65 77 357 360 13 20 327 311 308 307 305 304 300 299 300 303 302 303 288 285 284 282 280 277
53 51 51 49 49 50 49 47 50 49 51 50 50 50 50 53 57 68 59 63 71 75 113 151 147 104 71 337 319 313 310 309 307 307 310 308 317 300 292 287 283 281 277
51 49 48 46 46 46 46 44 46 45 47 47 49 48 46 48 54 59 61 63 67 76 82 91 109 108 236 203 32 330 317 316 312 314 314 310 314 312 303 291 287 284 280
47 44 43 43 42 41 42 42 42 43 42 42 44 42 40 43 44 51 52 62 64 70 75 82 88 91 70 24 2 32 30 342 332 324 331 319 312 312 305 307 303 298 290